This is the latest recevied weather packets stored in our database for station/object WB6ANP. If no packets are shown the sender has not sent any weather packets the latest 10 day(s).
| Time | Temp. | Humidity | Pressure | Rain* | Wind** | Luminosity | Snow |
|---|---|---|---|---|---|---|---|
| 1777251780 | 26.11° C | 73% | 1004.4 hPa | 0 mm | - | 9 W/m² | - |
| 1777251477 | 26.67° C | 72% | 1004 hPa | 0 mm | - | 14 W/m² | - |
| 1777251173 | 26.67° C | 72% | 1004.3 hPa | 0 mm | - | 19 W/m² | - |
| 1777250869 | 26.67° C | 72% | 1004 hPa | 0 mm | - | 19 W/m² | - |
| 1777250567 | 26.67° C | 72% | 1004 hPa | 0 mm | - | 31 W/m² | - |
| 1777250266 | 26.67° C | 71% | 1004.1 hPa | 0 mm | - | 37 W/m² | - |
| 1777249963 | 27.22° C | 71% | 1004.3 hPa | 0 mm | - | 44 W/m² | - |
| 1777249659 | 27.22° C | 70% | 1004.3 hPa | 0 mm | - | 52 W/m² | - |
| 1777249356 | 27.22° C | 70% | 1004.1 hPa | 0 mm | - | 59 W/m² | - |
| 1777249052 | 27.78° C | 69% | 1004.4 hPa | 0 mm | - | 69 W/m² | - |
| 1777248749 | 27.78° C | 69% | 1004.3 hPa | 0 mm | - | 78 W/m² | - |
| 1777248446 | 27.78° C | 69% | 1004.2 hPa | 0 mm | - | 89 W/m² | - |
| 1777248143 | 27.78° C | 69% | 1004.5 hPa | 0 mm | - | 101 W/m² | - |
| 1777247841 | 27.78° C | 69% | 1004.5 hPa | 0 mm | - | 109 W/m² | - |
| 1777247538 | 27.78° C | 69% | 1004.3 hPa | 0 mm | - | 118 W/m² | - |
| 1777247236 | 27.78° C | 69% | 1004.5 hPa | 0 mm | - | 137 W/m² | - |
| 1777246934 | 27.78° C | 69% | 1004.6 hPa | 0 mm | - | 129 W/m² | - |
| 1777246629 | 28.33° C | 68% | 1004.5 hPa | 0 mm | - | 144 W/m² | - |
| 1777246326 | 28.33° C | 68% | 1004.4 hPa | 0 mm | - | 171 W/m² | - |
| 1777246023 | 28.33° C | 69% | 1004.4 hPa | 0 mm | - | 186 W/m² | - |
| 1777245722 | 28.33° C | 69% | 1004.2 hPa | 0 mm | - | 214 W/m² | - |
| 1777245419 | 28.33° C | 69% | 1004.3 hPa | 0 mm | - | 231 W/m² | - |
| 1777245118 | 28.33° C | 70% | 1004.3 hPa | 0 mm | - | 248 W/m² | - |
| 1777244815 | 27.78° C | 71% | 1004.3 hPa | 0 mm | - | 253 W/m² | - |
| 1777244511 | 27.78° C | 72% | 1004.3 hPa | 0 mm | - | 199 W/m² | - |
* Rain latest hour (hover to see other rain measurements)
** Current wind speed in m/s (hover to see current wind gust speed)